Location: Bonneuil
(46.1010°N, 2.9693°E)
Time: 02:37:50
(UTC+00:00)

Cosmos 1763 Rocket - Pass Details

Date: 09 April 2020
Orbit: 734 x 779 km, 74.0° (Epoch: 29 May)

Event Time Altitude Azimuth Distance (km) Brightness Sun altitude
Rises 21:23:45 0° 332° (NNW) 3,222 7.9 -26.9°
Reaches altitude 10° 21:26:13 10° 327° (NNW) 2,285 6.9 -27.2°
Maximum altitude 21:31:06 44° 256° (WSW) 1,030 4.2 -27.7°
Enters shadow 21:31:30 43° 243° (WSW) 1,042 4.2 -27.7°
